Location: Britannia Beach
(45.3521°N, 62.9901°W)
Time: 18:23:21
(UTC+00:00)

X-37B - Pass Details

Date: 04 August 2021
Orbit: 381 x 393 km, 45.0° (Epoch: 29 August)

Event Time Altitude Azimuth Distance (km) Brightness Sun altitude
Exits shadow 08:25:29 - 258° (WSW) 1,621 3.1 -6.2°
Reaches altitude 10° 08:26:02 10° 257° (WSW) 1,396 2.8 -6.1°
Maximum altitude 08:29:09 77° 172° (S) 394 0.6 -5.6°
Drops below altitude 10° 08:32:18 10° 86° (E) 1,399 4.6 -5.1°
Sets 08:34:22 0° 84° (E) 2,254 5.8 -4.8°
